THOR ABLESTAR DEB, 136

Orbit data source: Space-Track

THOR ABLESTAR DEB, 136 is space debris in LEO originally from a launch on Thu, 29 Jun 1961 UTC launched from the Air Force Eastern Test Range (AFETR). Debris objects in space refer to the collection of defunct objects orbiting the Earth. Examples of debris include non-operational satellites, rocket bodies, and fragments generated from explosions, collisions, or faulty payload assembly.

Loading next visibility...
Identifier
136, 1961-015W
Orbit
LEO
Last TLE update
1 day ago
Origin
Manufacturer
Unknown
Mission
Spacecraft
Bus & Motor
Unknown
Mass
Unknown
Launch date (UTC)
1961-06-29 (64 years ago)
Launch vehicle
Unknown
Launch site
Air Force Eastern Test Range (AFETR)
Object type
Payload
Rocket body
Debris
Shape & HBR
Unknown
Radar Cross Section
Small (<0.1 m²)

Expand to show TLE details & history

TLE from 1 day ago
0 THOR ABLESTAR DEB
1 00136U 61015W   25191.40151549  .00000927  00000-0  31068-3 0  9999
2 00136  67.5287  80.8984 0048874 339.5221  20.3929 14.40679414307500
Epoch: 2025-07-10T09:38Z
TLE epoch observation values (Epoch: 2025-07-10T09:38:10.938Z)
Latitude
0.00004°
Longitude
7.78452°
Altitude
725.77 km
Speed
7.51 km/s
True Right ascension
05h 23m 35s
True Declination
0° 00' 00"
Sunlit
Object was in daylight at epoch
Visualization orbit readout
Latitude
9.78853°
Longitude
-179.04687°
Altitude
791.937 km
Speed
7.441 km/s
Apparent Right ascension
14h 53m 09s
Apparent Declination
-16° 57' 30"
Sunlit
Object is in full shadow
Visualization observer readout
Local Sidereal Time
23:42:51
Azimuth
285.088° WNW
Elevation
-43.007°
Doppler factor
1
Orbital elements
Apogee altitude
789.386 km
Perigee altitude
719.665 km
Semi-major axis
7,132.662 km
Eccentricity
0.00489
Inclination
67.5287°
RAAN
80.8984°
Arg. of periapsis
339.5221°
True anomaly
Unknown
Mean anomaly
20.3929°
Eccentric anomaly
Unknown
Mean motion
3.60301 °/min
Orbital period
99.92 mins
BSTAR
0.00031068
Loading maneuver chart data...
Loading SW <> Apogee altitude chart data...

THOR ABLESTAR DEB Visibility forecast

Observer location: undefined°, undefined°

Span
Click to sort rows by Start time (UTC) header in descending order
Start Az.
Max El. time (UTC)
Max El. Az.
Max El.
End time (UTC)
End Az.
8 mins2025-07-11 17:24:49.119Z172.728° S2025-07-11 17:28:49.119Z109.632° ESE30.88°2025-07-11 17:32:49.119Z47.766° ENE
7 mins2025-07-11 19:08:49.119Z263.34° W2025-07-11 19:11:49.119Z316.202° NNW25.444°2025-07-11 19:15:49.119Z7.42° NNE
7 mins2025-07-12 02:09:49.119Z3.929° NNE2025-07-12 02:12:49.119Z45.712° ENE22.967°2025-07-12 02:16:49.119Z100.694° ESE
9 mins2025-07-12 03:51:49.119Z316.819° NNW2025-07-12 03:55:49.119Z250.822° W36.617°2025-07-12 04:00:49.119Z175.77° S
|